GFSCGP_250_spd_159.txt.gz
Wind_Speed
85 83 77 79 80 83 87 86 88 87 87 83 81 76 78 74 72 71 69 67 68 72 74 71 69 69 70 70 70 70 72 74 72 73 74 75 75 77 81 84 84 82 79 75
87 84 84 84 82 78 75 76 85 91 89 86 83 79 77 76 72 70 71 73 75 77 77 77 77 76 74 72 71 73 73 75 77 78 80 78 80 83 86 87 86 86 81 78
91 89 90 86 84 82 80 78 81 82 86 86 85 78 79 78 73 76 78 81 81 82 81 82 80 78 77 76 75 76 78 80 82 83 83 84 88 89 90 90 90 87 85 84
98 97 94 88 85 87 86 85 84 84 83 79 79 73 75 72 76 78 83 85 86 85 84 82 81 80 81 81 82 83 84 84 85 86 89 91 92 92 93 92 89 89 90 94
100 102 99 94 91 91 90 90 88 87 88 86 83 82 74 78 77 83 87 87 88 88 87 85 85 86 86 86 86 87 87 87 89 91 92 92 93 92 92 92 93 94 97 99
104 101 99 97 97 92 93 93 90 90 91 88 86 89 75 79 82 86 88 89 91 93 92 91 91 90 90 90 90 89 88 90 92 92 95 94 92 93 95 98 101 101 103 104
110 102 101 97 100 98 96 95 97 99 100 90 95 98 80 86 86 88 91 91 93 94 96 95 93 92 92 91 93 95 95 95 96 98 99 98 97 99 100 103 105 106 107 106
109 109 105 101 100 101 106 109 108 107 108 103 104 96 92 93 91 92 94 94 95 95 97 95 94 94 98 101 101 99 99 102 103 103 102 101 103 104 104 105 107 109 110 107
115 114 109 107 108 107 109 111 112 117 115 112 107 99 98 95 96 96 97 99 96 95 98 99 101 104 106 105 102 105 108 108 108 107 107 108 109 109 109 110 107 106 105 110
120 121 118 118 119 117 118 118 118 119 120 119 110 108 104 104 98 96 101 104 102 102 106 109 110 111 110 110 112 113 113 114 113 114 114 115 115 115 115 110 108 111 114 117
124 125 129 127 124 124 123 123 125 127 126 123 118 112 106 107 106 102 106 108 108 109 110 111 112 113 113 115 116 119 117 118 119 119 120 119 121 119 114 113 117 119 121 124
129 133 134 131 128 128 127 126 128 128 124 127 128 117 107 114 111 110 109 111 113 113 114 115 116 118 119 121 124 123 123 123 124 125 126 125 123 119 119 121 125 127 129 131
132 136 134 134 129 127 128 128 130 130 134 133 129 118 115 122 118 120 119 118 117 116 117 118 121 123 124 124 125 127 130 130 131 131 130 128 124 124 126 131 133 135 136 140
140 139 138 137 130 133 135 134 135 139 140 129 133 124 122 122 122 123 126 126 123 119 121 121 125 128 129 129 130 131 132 135 132 131 130 130 132 134 135 137 138 141 142 144
145 143 142 139 139 142 136 137 139 143 140 140 130 137 121 126 133 134 131 130 129 130 129 130 132 133 134 135 135 136 136 134 134 135 135 135 136 138 141 144 145 146 145 146
148 149 148 146 143 143 143 141 144 140 138 145 141 139 127 133 139 143 137 138 138 134 134 137 138 139 138 139 140 138 137 136 138 137 138 138 141 145 145 146 150 149 147 138
146 149 151 151 148 151 155 146 142 143 144 141 143 135 136 139 139 142 142 141 141 141 142 142 142 141 143 140 139 139 140 140 140 141 145 146 145 147 149 147 141 138 132 117
146 146 148 150 152 160 151 147 148 146 143 143 145 143 138 140 143 144 142 141 142 144 146 145 143 143 143 141 142 142 143 146 148 147 148 144 145 143 134 127 124 113 109 101
147 147 148 150 148 148 150 144 143 147 149 146 144 140 140 141 146 143 140 144 146 145 145 146 146 145 146 146 147 146 149 148 148 149 143 145 128 117 122 116 103 96 93 92
151 152 157 155 152 153 147 141 144 151 155 141 143 143 144 148 155 145 154 151 150 151 152 149 146 145 146 147 150 152 153 143 138 135 131 120 113 118 98 96 92 90 89 88
156 155 155 156 156 156 151 151 154 157 147 145 146 146 149 153 154 155 150 151 151 150 150 151 151 150 153 148 146 148 139 132 122 117 115 115 105 98 92 91 90 89 89 89
152 158 161 161 165 163 148 152 154 152 155 157 154 152 156 159 160 159 156 154 154 153 154 150 148 147 148 143 137 127 126 126 112 113 106 101 97 93 91 91 90 91 92 94
119 122 128 138 147 161 161 159 155 154 160 156 154 150 154 158 159 158 155 148 143 137 139 135 132 129 119 118 116 106 105 105 104 103 100 97 94 93 92 93 94 96 99 100
108 118 129 130 130 133 133 132 136 140 141 146 145 143 141 144 140 132 127 126 122 122 121 115 112 107 102 99 97 98 98 97 97 98 97 97 97 96 96 97 98 100 103 105
88 94 91 97 99 107 110 118 125 129 133 136 134 130 125 122 118 116 117 116 118 115 111 104 98 95 96 96 95 95 95 96 96 97 97 97 98 99 100 101 103 106 109 112
76 76 78 77 85 86 85 97 102 105 108 113 117 119 116 116 116 115 114 113 111 108 101 95 92 91 94 94 94 94 95 96 96 97 99 99 100 103 105 107 110 113 114 112

GFSCGP_250_spd_162.txt.gz
Wind_Speed
88 84 77 77 76 76 81 82 81 80 82 78 78 75 79 73 70 69 71 69 70 71 73 69 66 65 69 68 68 68 68 69 67 64 63 64 66 66 67 72 73 74 75 75
92 87 84 83 81 80 80 79 76 81 84 81 82 81 80 77 76 76 74 72 73 72 74 74 69 71 69 71 71 71 71 71 69 67 68 69 71 73 74 75 75 77 81 80
95 93 91 86 83 82 80 80 79 80 83 79 83 82 83 82 77 76 76 76 76 75 76 76 77 74 75 74 74 74 73 71 71 72 73 74 76 79 79 78 79 82 82 86
97 97 95 89 85 82 80 85 86 84 83 79 79 71 67 73 77 78 81 81 81 81 78 80 80 79 79 78 77 74 74 74 76 78 79 79 81 81 82 82 83 85 89 91
88 93 96 95 86 88 86 89 88 85 86 88 83 78 65 69 66 68 72 73 77 79 82 82 81 79 80 81 79 79 80 80 81 83 84 84 83 82 83 88 88 87 91 94
95 92 92 92 97 92 89 94 92 91 92 91 83 84 73 73 74 72 74 74 79 83 84 82 82 83 83 82 83 82 82 83 85 88 87 86 84 86 94 95 94 94 97 97
105 102 100 97 95 95 97 96 96 98 96 90 92 92 76 80 81 79 79 78 84 83 83 83 85 86 88 88 88 87 87 87 88 89 90 90 92 98 101 100 100 101 102 104
109 105 104 104 101 106 107 103 104 106 104 104 104 90 83 85 85 81 82 82 85 85 86 88 90 91 91 92 91 91 91 90 92 94 95 98 104 106 106 102 103 106 108 109
113 110 110 110 110 108 109 109 109 113 111 110 106 95 94 91 92 89 89 90 91 91 94 96 96 96 97 96 96 96 95 94 95 98 102 106 107 108 107 108 109 111 112 115
115 117 111 115 115 112 110 115 115 114 114 114 104 100 90 93 97 97 95 96 98 101 102 102 102 103 102 101 101 100 100 102 103 104 107 109 110 112 112 113 114 116 119 120
123 120 120 118 116 117 115 116 119 120 119 117 111 109 100 98 102 101 102 103 105 108 109 108 107 109 109 110 108 107 106 107 109 110 113 114 115 117 117 117 120 122 123 124
128 131 126 124 119 123 124 121 119 121 118 121 121 115 105 108 113 112 109 108 112 114 114 114 114 114 115 116 115 115 114 113 115 115 116 116 118 118 119 122 125 127 129 130
134 134 130 128 125 121 122 121 123 122 123 126 126 109 104 113 113 114 114 114 118 118 118 119 121 121 120 120 120 122 124 125 125 124 126 125 124 125 128 128 129 131 133 137
133 138 137 131 124 129 127 125 126 128 134 128 129 112 110 115 119 122 122 122 123 123 125 125 125 124 123 123 123 126 126 126 126 129 130 132 133 133 132 134 136 137 140 139
136 135 136 134 133 135 133 130 131 134 129 131 122 128 110 117 126 130 132 130 130 129 130 131 130 129 128 130 131 129 128 130 131 132 134 136 136 137 138 138 140 140 141 144
139 137 139 139 139 137 136 137 137 133 130 134 128 128 116 122 127 130 133 134 132 129 132 135 134 136 135 135 136 134 134 136 136 137 138 140 140 140 139 140 140 141 143 144
136 139 143 142 138 143 148 137 137 140 139 135 138 130 129 129 129 135 137 144 139 140 140 142 138 139 139 139 139 138 137 138 138 140 140 140 141 141 140 140 144 147 147 147
137 136 139 142 144 152 142 138 140 141 140 140 142 140 136 134 136 141 138 142 144 143 143 147 147 145 142 142 143 143 141 140 139 141 142 142 143 146 146 148 150 150 148 148
142 141 143 144 145 148 147 138 139 145 149 148 147 141 143 146 146 146 141 143 149 151 148 148 148 147 146 144 142 142 141 141 142 145 146 146 148 150 150 150 148 149 152 139
146 145 148 148 145 145 140 142 151 156 159 145 146 151 149 146 151 146 141 148 150 150 147 144 144 144 144 141 141 143 144 145 146 148 149 151 154 153 152 153 151 142 133 116
146 146 149 153 155 154 145 143 147 153 145 144 147 151 151 151 152 153 152 151 151 151 149 148 148 147 145 145 145 147 150 151 154 154 153 152 156 152 145 143 137 121 117 112
151 151 150 151 153 152 142 151 154 153 156 155 151 153 154 155 156 156 154 154 154 153 151 151 150 152 151 152 153 153 155 153 155 155 151 150 146 134 128 125 115 113 109 107
116 120 130 145 156 157 153 152 151 155 157 154 153 155 159 159 159 159 159 156 155 154 153 152 151 154 154 154 154 148 151 148 149 134 136 125 124 119 112 112 110 106 106 104
114 114 117 117 115 117 121 129 143 154 162 165 162 161 161 163 162 160 162 163 162 159 157 153 154 154 155 146 140 135 133 126 128 123 121 119 111 111 106 103 102 103 104 104
96 104 103 107 100 110 114 113 118 123 130 136 142 149 154 158 157 156 155 153 149 149 149 145 135 132 134 133 126 121 121 118 118 119 116 113 109 105 102 100 101 102 104 105
83 84 88 85 86 92 90 96 104 110 115 121 125 128 128 129 126 127 130 129 130 131 133 131 127 125 124 123 124 121 119 114 112 110 106 102 100 99 99 101 102 104 105 107

GFSCGP_250_spd_165.txt.gz
Wind_Speed
88 84 79 77 77 79 79 79 81 80 80 76 71 68 72 73 67 67 68 67 67 70 68 61 62 65 66 68 65 65 66 65 66 66 64 63 63 63 63 63 64 65 66 66
94 82 82 86 83 78 77 79 77 85 85 82 77 72 72 72 73 74 72 70 72 73 75 67 68 72 72 71 70 70 69 68 67 66 65 66 66 66 64 67 69 71 71 72
97 92 88 86 80 78 79 78 80 79 81 79 75 69 72 78 72 70 73 75 76 78 80 73 76 78 76 75 73 73 73 71 70 68 69 68 67 69 71 72 73 76 77 77
98 93 89 88 84 82 82 82 86 84 83 76 76 66 65 71 66 61 67 76 80 82 81 80 79 79 78 77 76 75 74 72 70 71 72 73 73 74 75 75 76 78 79 80
97 96 91 89 87 90 83 86 86 88 87 85 80 79 65 68 67 66 71 69 68 68 69 69 70 71 72 72 71 73 73 71 72 74 75 76 78 79 79 79 79 81 82 83
103 97 94 87 90 92 91 88 88 91 94 90 82 83 70 68 72 74 70 71 71 73 73 71 73 76 76 75 75 74 74 75 77 78 80 80 80 81 83 83 84 84 84 86
103 102 103 96 95 96 95 94 95 96 95 90 89 91 76 76 76 78 77 75 78 77 75 76 78 79 80 81 81 80 80 80 81 82 83 84 85 87 89 89 89 89 90 93
108 104 102 101 100 101 103 101 103 101 96 95 98 90 82 86 85 83 84 83 83 82 82 84 85 84 86 85 85 85 86 86 87 87 88 90 91 92 94 96 96 98 101 102
107 107 105 106 107 106 104 105 107 109 107 104 96 87 85 85 88 89 87 86 87 88 89 91 92 94 95 95 94 92 92 92 94 95 96 97 98 100 101 102 103 104 106 107
113 111 111 110 113 112 108 110 111 109 110 111 101 97 86 86 89 92 92 93 94 95 98 100 102 102 103 101 100 100 99 98 100 102 102 104 104 105 106 107 109 109 110 112
120 119 116 117 112 115 115 114 116 116 113 111 107 102 94 93 95 97 100 100 99 99 99 102 106 108 106 105 105 107 108 109 110 110 109 109 109 110 111 113 112 112 114 115
124 125 124 121 121 122 121 119 117 116 116 118 117 107 98 100 103 107 104 105 107 108 109 110 111 111 110 111 111 111 114 114 113 112 112 114 114 116 117 116 118 121 120 124
126 126 126 124 123 123 123 122 122 121 122 124 123 107 103 104 109 110 112 113 114 113 112 113 114 115 114 116 116 115 114 114 116 116 117 118 120 122 124 125 126 127 128 129
132 133 129 126 122 128 129 128 131 131 132 123 125 110 109 112 111 115 120 118 116 118 120 120 120 120 121 118 117 120 120 120 121 122 122 125 128 128 129 131 132 134 134 134
128 134 132 129 133 136 133 134 136 136 133 135 126 126 109 114 116 123 123 123 127 128 127 125 124 124 124 122 123 123 124 124 124 125 125 128 132 135 137 140 140 140 141 139
121 123 131 135 135 137 140 139 139 134 130 135 131 131 118 123 124 125 125 130 133 133 129 127 128 128 130 127 127 128 127 127 127 129 131 133 136 139 139 140 140 142 143 142
130 127 131 140 140 144 146 135 136 141 140 137 138 130 128 124 126 128 129 137 137 134 134 134 131 131 133 133 133 133 134 134 134 135 135 137 140 141 141 143 145 142 141 140
137 136 135 134 135 144 138 135 138 140 140 140 142 138 129 127 129 131 134 136 138 141 139 137 136 136 136 138 137 138 139 137 137 140 142 143 144 145 143 141 141 138 139 142
136 140 142 143 139 138 135 126 128 136 142 142 144 139 139 137 137 135 131 139 144 144 144 142 141 142 143 146 145 144 142 139 139 140 140 142 143 142 141 141 142 145 145 147
134 137 143 146 147 148 136 131 134 140 149 137 139 145 145 145 147 139 140 144 143 146 146 146 145 145 146 146 147 145 143 142 141 141 141 140 141 143 145 148 152 151 151 150
138 138 140 142 146 149 141 140 145 152 143 139 143 148 150 149 148 147 147 147 148 150 153 153 152 149 148 149 148 147 146 143 142 142 145 146 150 152 153 154 153 151 153 152
134 141 142 144 147 146 132 139 145 148 153 152 149 150 151 150 148 148 149 149 151 151 155 157 158 156 154 150 149 148 148 150 149 150 153 155 156 155 153 156 156 155 151 139
105 114 124 134 142 147 144 147 145 147 148 149 150 152 153 157 157 157 157 156 154 153 156 156 156 157 157 158 156 155 154 154 155 153 154 158 157 159 155 149 145 140 131 129
106 110 114 119 114 116 120 122 129 139 149 156 160 159 156 155 153 153 155 155 156 157 156 158 158 157 159 157 154 156 153 155 154 156 157 152 146 139 134 131 129 124 123 118
89 93 97 92 90 100 98 103 109 115 120 123 126 131 136 142 147 153 158 161 163 163 161 162 164 165 167 165 163 161 155 152 147 138 135 133 128 123 120 117 116 110 107 107
77 76 79 82 88 89 80 81 83 90 100 109 114 117 121 126 126 129 130 130 130 132 132 131 131 129 127 126 127 125 124 122 122 123 123 120 113 109 105 102 101 101 102 103

GFSCGP_250_spd_168.txt.gz
Wind_Speed
92 88 80 82 86 82 78 76 79 79 79 75 73 70 71 71 64 65 66 65 64 65 66 61 62 63 64 66 66 64 62 63 63 63 63 64 65 66 68 68 62 59 62 63
98 89 90 91 87 84 81 76 73 82 83 79 76 73 73 74 72 69 68 66 67 70 71 69 70 70 70 71 71 70 69 69 68 68 69 69 69 71 71 69 68 67 67 68
104 97 97 93 88 86 85 83 75 84 88 82 74 65 71 74 75 73 71 70 69 72 74 71 75 78 77 75 74 73 74 74 74 74 75 73 71 69 69 70 71 71 71 72
106 102 99 97 93 89 87 88 86 81 87 80 73 63 66 71 75 77 76 78 77 78 78 74 76 76 77 78 78 78 79 75 70 69 66 68 71 71 71 72 72 74 76 78
106 104 100 97 97 99 93 93 92 87 85 82 79 74 58 67 68 74 74 71 70 69 70 71 71 70 69 68 67 69 69 72 75 75 74 73 74 73 74 76 77 80 82 84
111 107 101 98 100 100 102 100 98 94 91 87 78 76 63 62 71 77 76 74 73 74 74 74 73 73 71 69 69 70 69 69 71 74 75 78 80 81 82 83 86 87 87 87
111 110 108 105 105 101 99 100 106 106 99 89 87 86 64 68 72 76 79 80 79 80 81 81 81 79 77 75 74 74 74 74 75 76 78 80 84 85 86 87 88 89 90 92
110 109 109 106 108 109 106 106 109 106 105 100 96 87 75 78 78 79 82 85 86 85 83 83 84 83 83 84 85 84 83 83 83 83 87 88 89 89 90 92 93 95 96 97
113 110 110 109 110 111 111 110 112 114 110 109 104 91 88 85 86 90 85 85 88 89 89 88 88 91 94 95 95 95 94 92 92 93 94 95 96 97 98 99 99 100 100 102
113 108 111 113 113 114 113 113 115 116 117 112 104 100 91 90 91 94 96 96 94 91 93 96 97 95 94 93 95 95 96 96 95 97 98 103 103 103 103 103 102 104 108 108
115 112 110 112 111 113 114 115 117 119 117 116 108 100 94 91 95 96 99 99 101 100 99 101 102 105 103 100 99 100 101 103 106 105 105 105 106 107 107 107 111 111 111 111
121 120 115 111 113 115 118 117 121 120 116 118 118 104 97 93 96 101 103 105 104 106 107 107 106 105 105 104 105 105 106 109 110 110 110 110 111 112 114 116 116 116 114 115
124 126 122 118 116 116 115 115 118 120 125 123 124 101 101 104 104 106 107 108 108 109 111 113 112 111 110 111 110 111 113 115 117 116 116 117 118 118 119 120 119 120 122 121
126 130 127 122 122 124 123 125 126 129 130 121 124 109 104 108 111 112 114 114 113 117 118 118 117 117 117 116 116 115 115 117 119 120 120 120 120 122 124 125 125 125 126 126
126 131 133 132 131 129 127 128 131 132 129 132 124 123 109 112 114 119 120 120 122 125 124 123 125 126 124 122 123 125 125 125 126 125 126 128 129 131 132 131 131 129 130 132
125 125 127 131 134 135 135 134 131 130 130 135 129 130 117 119 123 122 123 127 131 132 130 130 128 127 127 127 127 128 130 130 129 128 129 130 131 132 132 135 134 135 136 135
124 128 128 127 125 132 140 138 136 135 134 132 137 131 127 125 123 124 129 135 134 133 136 135 133 131 129 129 132 132 134 135 133 133 135 136 136 137 137 138 138 137 139 141
129 130 132 128 126 133 129 129 133 139 137 136 138 137 131 130 131 132 137 137 136 140 142 142 139 139 139 138 137 139 140 140 136 134 134 135 137 138 138 139 141 143 143 142
130 129 132 136 137 139 134 127 127 133 138 141 143 141 140 139 140 139 131 135 142 143 143 143 142 141 140 140 141 143 144 144 142 141 140 140 141 141 140 140 142 142 143 144
128 130 133 134 138 142 137 134 138 142 147 131 136 140 140 141 149 143 135 141 141 143 147 146 147 149 148 147 147 148 149 149 148 148 146 144 145 146 145 144 145 144 145 149
134 138 138 136 137 136 131 133 136 147 143 142 144 148 148 149 147 145 143 141 143 145 147 149 146 145 147 149 150 149 147 146 147 149 148 147 146 143 142 143 147 150 150 154
132 140 140 138 139 136 131 131 133 137 140 139 139 144 152 154 154 154 152 150 150 150 149 149 149 148 146 147 147 148 148 147 150 148 145 145 147 149 148 150 153 155 158 158
109 116 123 130 133 136 135 138 138 142 145 147 147 147 147 148 148 149 149 149 149 152 152 155 157 157 156 157 157 159 156 157 156 155 156 156 157 158 157 157 155 154 156 153
97 99 100 103 98 109 110 115 122 129 134 137 141 144 145 149 152 155 156 157 156 154 153 152 153 154 154 157 157 158 157 158 157 155 154 153 156 155 156 156 154 152 151 140
86 90 98 93 94 95 96 102 107 111 115 118 122 126 127 126 126 129 130 134 136 137 141 144 146 150 153 154 157 159 158 157 157 156 154 152 147 142 136 134 130 126 123 121
70 75 74 71 78 75 76 83 89 92 96 101 104 109 112 112 115 118 120 121 123 125 127 130 132 133 132 133 133 131 130 129 129 128 126 126 127 128 128 126 124 122 116 113

GFSCGP_250_spd_171.txt.gz
Wind_Speed
100 93 82 82 84 84 82 76 73 71 72 68 67 70 71 70 63 64 64 65 63 63 65 63 62 63 63 63 63 65 64 63 63 65 66 67 67 67 68 69 69 70 70 70
105 94 92 92 88 86 87 81 78 79 78 73 71 68 73 72 69 68 67 67 67 67 67 68 68 67 67 69 71 71 70 69 69 70 70 71 71 73 74 74 74 74 69 64
100 98 102 98 92 89 87 86 85 84 85 81 78 67 65 74 72 70 70 72 73 75 75 73 72 72 71 71 72 73 74 74 73 76 75 75 75 76 78 77 69 67 69 71
107 104 101 102 98 93 92 89 88 85 87 86 82 73 69 65 73 75 75 78 81 81 79 77 78 78 78 76 75 76 77 75 72 71 72 71 66 64 66 68 72 74 73 75
113 103 104 101 104 101 94 97 97 93 90 88 84 82 65 66 65 75 84 83 83 85 84 82 80 80 81 82 78 73 71 71 71 70 70 68 66 66 69 71 73 74 77 78
111 111 109 102 102 108 102 101 101 101 98 94 88 86 74 69 69 75 81 85 85 85 85 85 83 81 80 78 77 76 74 74 74 73 73 71 70 70 70 71 72 75 78 82
116 113 111 110 106 106 105 104 106 105 102 94 94 96 77 78 76 76 79 81 82 83 82 82 82 80 81 81 81 82 83 82 82 81 79 78 78 78 78 80 81 81 84 88
122 116 115 113 111 114 111 113 112 111 106 102 103 94 84 85 85 84 85 84 83 85 84 83 82 82 84 86 87 88 89 90 91 90 88 88 87 87 88 89 91 92 93 93
124 123 120 117 115 116 115 116 115 114 111 107 102 92 90 90 91 93 93 90 91 89 89 89 88 90 92 93 95 95 94 93 92 91 92 93 94 97 98 98 97 99 99 100
123 124 126 124 122 120 118 117 117 118 118 114 106 103 97 97 98 99 99 98 96 95 96 96 96 97 98 98 99 100 101 101 100 99 99 99 101 103 103 104 104 104 104 103
123 124 123 122 123 124 125 124 123 123 123 119 114 105 100 100 102 103 103 106 106 104 103 103 103 103 102 102 103 104 104 103 102 102 103 103 104 105 105 105 105 104 105 108
123 124 123 123 122 122 126 125 127 124 120 123 120 108 105 105 105 108 111 109 111 111 111 114 114 107 105 105 107 108 107 106 106 106 107 108 108 109 109 110 110 111 111 112
123 125 121 120 122 121 120 120 122 123 125 124 122 106 107 112 113 113 111 116 117 117 119 120 119 116 116 115 110 109 109 110 110 111 112 112 112 114 114 115 115 115 117 119
124 127 125 119 121 122 123 125 127 129 128 118 125 112 108 110 113 113 115 117 118 120 122 120 119 121 120 118 115 115 115 115 115 116 116 116 116 117 118 120 123 124 125 126
119 129 127 125 123 124 124 126 128 129 125 131 121 124 111 113 113 117 117 118 121 124 124 122 124 124 122 122 122 122 121 121 121 122 123 124 124 125 125 126 127 127 128 128
120 121 124 127 126 128 130 130 128 129 129 131 128 130 115 118 123 121 122 125 125 124 122 124 124 125 125 125 126 128 127 128 127 127 129 131 130 130 130 130 130 132 133 135
117 119 121 122 122 127 133 127 131 130 129 132 136 130 131 126 123 125 130 133 131 130 132 133 132 131 131 133 134 134 136 136 137 136 137 137 137 136 137 138 139 141 142 141
114 117 119 115 122 132 125 127 128 132 132 134 139 140 137 135 134 133 136 136 136 139 140 139 138 141 141 140 139 140 141 142 142 140 141 141 142 142 143 144 145 144 144 144
113 115 117 121 124 128 126 120 128 135 138 140 138 138 140 137 140 136 132 140 143 144 144 143 144 143 143 142 143 142 141 141 142 142 144 146 147 146 146 146 147 146 145 142
118 115 119 122 125 132 121 124 129 136 138 131 139 141 141 141 142 136 134 136 142 146 148 150 151 151 150 149 151 151 150 151 150 151 152 151 150 149 148 148 146 145 144 142
122 122 122 121 126 128 126 132 134 136 132 135 137 139 139 140 143 142 142 141 142 142 144 145 145 146 147 146 147 148 148 148 148 148 148 150 150 148 150 148 145 147 147 147
124 125 129 131 133 133 131 133 136 136 135 135 135 136 139 140 141 142 141 142 142 141 144 146 147 149 150 151 152 153 153 154 154 157 159 158 156 155 157 155 153 153 155 155
112 119 128 134 133 133 131 132 133 136 136 137 137 141 145 146 147 148 148 150 150 150 149 146 144 144 146 148 150 149 150 151 153 154 156 156 155 154 156 154 155 154 152 153
92 100 106 112 113 121 121 123 129 132 133 135 139 140 140 141 144 146 149 152 155 153 150 149 141 138 139 143 146 149 152 155 156 157 157 157 158 158 158 157 156 151 148 149
85 87 90 85 84 88 89 94 97 100 102 104 108 112 115 117 120 122 125 128 131 133 133 132 130 128 129 129 131 134 137 137 139 141 142 143 143 144 143 144 144 139 133 132
64 64 63 61 72 75 79 84 87 90 93 97 99 101 104 106 108 110 112 115 116 117 118 118 119 117 116 117 118 116 118 120 122 126 130 132 133 133 132 134 134 130 128 126